Auburn, IN

7:31 PM EDT on August 25, 2016 (GMT -0400)
Auburn

Weather History for KGWB - November, 2012

Change the Weather History Date:

Friday, November 23, 2012

  Actual Average (KFWA) Record (KFWA)
Temperature  
Mean Temperature 42 °F 38 °F  
Max Temperature 53 °F 46 °F 71 °F (1931)
Min Temperature 32 °F 30 °F 3 °F (1950)
Degree Days  
Heating Degree Days 22 27  
Month to date heating degree days 507  
Since 1 July heating degree days 1016  
Cooling Degree Days 0 0  
Month to date cooling degree days 0  
Year to date cooling degree days 809  
Moisture  
Dew Point 30 °F    
Average Humidity 73    
Maximum Humidity 94    
Minimum Humidity 58    
Precipitation  
Precipitation 0.07 in 0.11 in 1.56 in (2014)
Month to date precipitation 2.34  
Year to date precipitation 34.82  
Snow  
Snow 0.00 in 0.00 in 3.20 in (1938)
Month to date snowfall 1.0  
Since 1 July snowfall 1.3  
Since 1 September snowfall 1.3  
Snow Depth -    
Sea Level Pressure  
Sea Level Pressure 29.95 in    
Wind  
Wind Speed 14 mph (WSW)    
Max Wind Speed 24 mph    
Max Gust Speed 34 mph    
Visibility 10 miles    
Events Rain , Snow    
T = Trace of Precipitation, MM = Missing Value Source: NWS Daily Summary

Daily Weather History Graph

Daily Weather History Graph

Search for Another Location

Airport or City:

Trip Planner

Search our weather history database for the weather conditions in past years. The results will help you decide how hot, cold, wet, or windy it might be!

Date:

Astronomy

Nov. 23, 2012 Rise Set
Actual Time 7:38 AM EST 5:14 PM EST
Civil Twilight 7:08 AM EST 5:45 PM EST
Nautical Twilight 6:34 AM EST 6:19 PM EST
Astronomical Twilight 6:01 AM EST 6:52 PM EST
Moon 2:31 PM EST (11/23) 2:54 AM EST (11/23)
Length of Visible Light 10h 36m
Length of Day
9h 36m
Waxing Gibbous, 79% of the Moon is Illuminated
Nov 23
Waxing Gibbous
Nov 28
Full
Dec 6
Last Quarter
Dec 13
New
Dec 20
First Quarter

Hourly Weather History & Observations

Time (EST) Temp. Windchill Dew Point Humidity Pressure Visibility Wind Dir Wind Speed Gust Speed Precip Events Conditions
12:15 AM 53.6 °F - 39.2 °F 58% 29.85 in 10.0 mi SW 10.4 mph 19.6 mph N/A   Mostly Cloudy
12:35 AM 53.6 °F - 41.0 °F 62% 29.84 in 10.0 mi SW 11.5 mph 21.9 mph N/A   Mostly Cloudy
12:55 AM 53.6 °F - 42.8 °F 67% 29.84 in 10.0 mi SW 16.1 mph 25.3 mph N/A Rain Rain
1:15 AM 53.6 °F - 44.6 °F 72% 29.84 in 7.0 mi SW 16.1 mph 23.0 mph N/A Rain Rain
1:35 AM 51.8 °F - 46.4 °F 82% 29.83 in 5.0 mi SW 11.5 mph 21.9 mph 0.03 in Rain Rain
1:55 AM 51.8 °F - 46.4 °F 82% 29.83 in 5.0 mi SW 11.5 mph 17.3 mph 0.07 in Rain Light Rain
2:15 AM 51.8 °F - 48.2 °F 88% 29.83 in 7.0 mi SW 10.4 mph 19.6 mph N/A Rain Light Rain
2:35 AM 51.8 °F - 48.2 °F 88% 29.82 in 5.0 mi WSW 9.2 mph 19.6 mph N/A   Light Drizzle
2:55 AM 51.8 °F - 50.0 °F 94% 29.82 in 7.0 mi SW 11.5 mph 18.4 mph N/A   Overcast
3:15 AM 51.8 °F - 48.2 °F 88% 29.82 in 7.0 mi WSW 10.4 mph - N/A   Overcast
3:35 AM 51.8 °F - 48.2 °F 88% 29.82 in 10.0 mi WSW 12.7 mph 19.6 mph N/A   Mostly Cloudy
3:55 AM 51.8 °F - 46.4 °F 82% 29.82 in 10.0 mi WSW 15.0 mph 23.0 mph N/A   Mostly Cloudy
4:15 AM 50.0 °F - 42.8 °F 76% 29.83 in 10.0 mi West 17.3 mph 29.9 mph N/A   Mostly Cloudy
4:35 AM 44.6 °F 38.4 °F 39.2 °F 81% 29.85 in 10.0 mi West 12.7 mph 17.3 mph N/A   Scattered Clouds
4:55 AM 44.6 °F 37.4 °F 37.4 °F 76% 29.85 in 10.0 mi West 16.1 mph 23.0 mph N/A   Mostly Cloudy
5:15 AM 42.8 °F 35.1 °F 35.6 °F 76% 29.86 in 10.0 mi West 16.1 mph 25.3 mph N/A   Overcast
5:35 AM 41.0 °F 33.9 °F 35.6 °F 81% 29.86 in 10.0 mi WSW 12.7 mph 20.7 mph N/A   Overcast
5:55 AM 41.0 °F 33.9 °F 33.8 °F 76% 29.86 in 10.0 mi West 12.7 mph 27.6 mph N/A   Mostly Cloudy
6:15 AM 41.0 °F 33.9 °F 33.8 °F 76% 29.87 in 10.0 mi WSW 12.7 mph 18.4 mph N/A   Mostly Cloudy
6:35 AM 37.4 °F 28.9 °F 32.0 °F 81% 29.88 in 10.0 mi West 13.8 mph 24.2 mph N/A   Mostly Cloudy
6:55 AM 37.4 °F 29.3 °F 32.0 °F 81% 29.88 in 10.0 mi WSW 12.7 mph 19.6 mph N/A   Overcast
7:15 AM 37.4 °F 28.5 °F 32.0 °F 81% 29.88 in 10.0 mi West 15.0 mph 21.9 mph N/A   Overcast
7:35 AM 37.4 °F 29.3 °F 32.0 °F 81% 29.88 in 10.0 mi WSW 12.7 mph 18.4 mph N/A   Overcast
8:15 AM 35.6 °F 26.2 °F 32.0 °F 87% 29.89 in 10.0 mi West 15.0 mph 20.7 mph N/A   Overcast
8:35 AM 37.4 °F 28.9 °F 32.0 °F 81% 29.89 in 10.0 mi West 13.8 mph 23.0 mph N/A   Overcast
8:55 AM 37.4 °F 29.8 °F 32.0 °F 81% 29.89 in 10.0 mi WSW 11.5 mph 24.2 mph N/A   Overcast
9:15 AM 37.4 °F 29.3 °F 30.2 °F 75% 29.90 in 10.0 mi WSW 12.7 mph 25.3 mph N/A   Overcast
9:35 AM 35.6 °F 25.9 °F 30.2 °F 81% 29.90 in 10.0 mi West 16.1 mph 29.9 mph N/A   Overcast
9:55 AM 35.6 °F 28.0 °F 30.2 °F 81% 29.90 in 10.0 mi West 10.4 mph 26.5 mph N/A   Overcast
10:15 AM 35.6 °F 24.8 °F 30.2 °F 81% 29.91 in 10.0 mi West 19.6 mph 24.2 mph N/A   Overcast
10:35 AM 35.6 °F 25.5 °F 28.4 °F 75% 29.91 in 10.0 mi West 17.3 mph 27.6 mph N/A   Overcast
10:55 AM 35.6 °F 25.2 °F 28.4 °F 75% 29.91 in 10.0 mi WSW 18.4 mph 26.5 mph N/A   Overcast
11:15 AM 35.6 °F 26.6 °F 26.6 °F 70% 29.91 in 10.0 mi West 13.8 mph 24.2 mph N/A   Overcast
11:35 AM 35.6 °F 24.2 °F 26.6 °F 70% 29.91 in 10.0 mi West 21.9 mph 31.1 mph N/A   Overcast
11:55 AM 35.6 °F 24.5 °F 26.6 °F 70% 29.91 in 10.0 mi West 20.7 mph 34.5 mph N/A   Overcast
12:15 PM 35.6 °F 24.5 °F 24.8 °F 65% 29.91 in 10.0 mi West 20.7 mph 29.9 mph N/A   Overcast
12:35 PM 35.6 °F 25.2 °F 26.6 °F 70% 29.91 in 10.0 mi West 18.4 mph 25.3 mph N/A   Overcast
12:55 PM 33.8 °F 23.2 °F 26.6 °F 75% 29.91 in 10.0 mi West 17.3 mph 31.1 mph N/A   Overcast
1:15 PM 32.0 °F 18.9 °F 23.0 °F 69% 29.93 in 10.0 mi West 24.2 mph 34.5 mph N/A   Overcast
1:35 PM 32.0 °F 19.5 °F 23.0 °F 69% 29.94 in 7.0 mi WNW 21.9 mph 31.1 mph N/A Snow Light Snow
1:55 PM 32.0 °F 19.2 °F 21.2 °F 64% 29.95 in 10.0 mi West 23.0 mph 32.2 mph N/A   Overcast
2:15 PM 32.0 °F 19.5 °F 21.2 °F 64% 29.96 in 10.0 mi West 21.9 mph 29.9 mph N/A   Overcast
2:35 PM 32.0 °F 20.5 °F 23.0 °F 69% 29.97 in 10.0 mi West 18.4 mph 27.6 mph N/A   Overcast
2:55 PM 32.0 °F 21.6 °F 21.2 °F 64% 29.97 in 10.0 mi West 15.0 mph 26.5 mph N/A   Overcast
3:15 PM 32.0 °F 20.8 °F 21.2 °F 64% 29.99 in 10.0 mi West 17.3 mph 28.8 mph N/A   Overcast
3:35 PM 32.0 °F 20.8 °F 21.2 °F 64% 30.00 in 10.0 mi West 17.3 mph 31.1 mph N/A   Overcast
3:55 PM 32.0 °F 22.1 °F 21.2 °F 64% 30.01 in 10.0 mi West 13.8 mph 24.2 mph N/A   Overcast
4:15 PM 32.0 °F 21.6 °F 21.2 °F 64% 30.02 in 10.0 mi West 15.0 mph 25.3 mph N/A   Overcast
4:35 PM 32.0 °F 20.8 °F 21.2 °F 64% 30.03 in 10.0 mi WSW 17.3 mph 26.5 mph N/A   Overcast
4:55 PM 32.0 °F 21.6 °F 21.2 °F 64% 30.04 in 10.0 mi West 15.0 mph 21.9 mph N/A Snow Light Snow
5:15 PM 32.0 °F 22.1 °F 21.2 °F 64% 30.05 in 10.0 mi West 13.8 mph 23.0 mph N/A Snow Light Snow
5:35 PM 32.0 °F 20.8 °F 23.0 °F 69% 30.06 in 7.0 mi West 17.3 mph 21.9 mph N/A Snow Light Snow
5:55 PM 32.0 °F 23.0 °F 23.0 °F 69% 30.07 in 10.0 mi West 11.5 mph 21.9 mph N/A Snow Light Snow
6:15 PM 32.0 °F 21.6 °F 23.0 °F 69% 30.08 in 10.0 mi West 15.0 mph 21.9 mph N/A Snow Light Snow
6:35 PM 32.0 °F 22.1 °F 23.0 °F 69% 30.08 in 10.0 mi West 13.8 mph 19.6 mph N/A   Overcast
6:55 PM 32.0 °F 22.1 °F 23.0 °F 69% 30.08 in 10.0 mi West 13.8 mph - N/A Snow Light Snow
7:35 PM 32.0 °F 21.2 °F 23.0 °F 69% 30.09 in 10.0 mi West 16.1 mph 20.7 mph N/A   Overcast
7:55 PM 32.0 °F 22.1 °F 21.2 °F 64% 30.09 in 10.0 mi West 13.8 mph 23.0 mph N/A   Overcast
8:15 PM 32.0 °F 23.0 °F 21.2 °F 64% 30.09 in 10.0 mi West 11.5 mph 17.3 mph N/A   Overcast
8:35 PM 32.0 °F 22.5 °F 23.0 °F 69% 30.10 in 10.0 mi West 12.7 mph 18.4 mph N/A   Overcast
8:55 PM 32.0 °F 23.6 °F 23.0 °F 69% 30.10 in 10.0 mi West 10.4 mph 16.1 mph N/A   Overcast
9:15 PM 32.0 °F 24.8 °F 23.0 °F 69% 30.10 in 10.0 mi WSW 8.1 mph - N/A   Overcast
9:35 PM 32.0 °F 25.6 °F 23.0 °F 69% 30.10 in 10.0 mi West 6.9 mph - N/A   Overcast
9:55 PM 32.0 °F 24.2 °F 23.0 °F 69% 30.10 in 10.0 mi WSW 9.2 mph - N/A   Overcast
10:15 PM 32.0 °F 24.2 °F 21.2 °F 64% 30.10 in 10.0 mi WSW 9.2 mph - N/A   Overcast
10:35 PM 32.0 °F 24.8 °F 23.0 °F 69% 30.10 in 10.0 mi WSW 8.1 mph - N/A   Overcast
10:55 PM 32.0 °F 24.2 °F 23.0 °F 69% 30.10 in 10.0 mi WSW 9.2 mph - N/A   Overcast
11:15 PM 32.0 °F 23.0 °F 23.0 °F 69% 30.10 in 10.0 mi WSW 11.5 mph - N/A   Overcast
11:35 PM 32.0 °F 24.2 °F 21.2 °F 64% 30.09 in 10.0 mi WSW 9.2 mph - N/A   Overcast
11:55 PM 32.0 °F 24.2 °F 21.2 °F 64% 30.10 in 10.0 mi WSW 9.2 mph 16.1 mph N/A   Overcast